sat.trackr.live / text

‹ back to catalog

STARLINK-31658

NORAD 59513 · 2024-073C

PAYLOAD ACTIVE UNKNOWN

§ Identity

Operator
Country
US
Launch date
2024-04-17
Launch site
AFETR
Launch vehicle
Mass (kg)
RCS (m²)

Purposes: comms

External: N2YO · Heavens-Above · Gunter

§ Orbital elements

Epoch: 2026-05-25T05:08:29.280192Z

Period
94.27 min
Inclination
43.0037°
Eccentricity
0.0001489
Mean motion
15.27575029 rev/d
Perigee alt
482.0 km
Apogee alt
484.1 km
Semi-major
6,861.2 km
B*
1.1795e-4
RAAN
205.5775°
Arg perigee
291.1676°
Mean anomaly
68.9017°
Rev number
11,833

§ Raw data

STARLINK-316581 59513U 24073C   26145.21422778  .00002984  00000+0  11795-3 0  99982 59513  43.0037 205.5775 0001489 291.1676  68.9017 15.27575029118337

JSON: /api/v1/satellites/59513 · /tle

For live sub-satellite position, see the globe view (requires WebGL).

§ Visibility from observer

Set your observer location to see the next 7 days of passes ≥ 10°. The values pass through the URL so the page stays shareable.

No JS? Fill the form by hand. The geolocation button needs JavaScript.